DO-64
1 32789U 08021G 11159.68316192 .00002423 00000-0 30353-3 0 149
2 32789 097.8571 224.8663 0014953 198.2568 161.8128 14.83089546168325
CO-66
1 32791U 08021J 11159.72095794 .00000682 00000-0 92192-4 0 09
2 32791 097.8491 223.6388 0015340 198.9911 161.0720 14.82123008168253
RS-30
1 32953U 08025A 11159.53522138 .00000010 00000-0 00000 0 0 8048
2 32953 082.5002 168.1014 0020263 048.6740 311.6081 12.43013453138013
TACSAT-3
1 35001U 09028A 11159.54740688 .00018526 00000-0 33547-3 0 6115
2 35001 040.4531 225.2247 0021536 146.8115 213.4058 15.48896945115745
PHARMSAT
1 35002U 09028B 11159.57671834 .00014843 00000-0 27310-3 0 5685
2 35002 040.4691 222.7509 0023561 155.3625 204.8321 15.48508358115775
HAWKSAT1
1 35003U 09028C 11158.45809352 .00073679 00000-0 72387-3 0 06463
2 35003 040.4533 202.1373 0020218 167.4036 192.7297 15.64757653115902
CP6
1 35004U 09028D 11159.41172161 .00107909 00000-0 80262-3 0 6489
2 35004 040.4539 187.9522 0020665 180.2978 179.7776 15.71373053116138
METEOR-M
1 35865U 09049A 11159.70678479 .00000176 00000-0 10000-3 0 4403
2 35865 098.7059 214.9443 0003424 057.2120 302.9344 14.21839302 89380
RS-38
1 35869U 09049E 11159.70790274 .00000177 00000-0 10000-3 0 4338
2 35869 098.7026 214.9817 0005632 057.4822 302.6866 14.22013220 89398
